Torna al catalogo

QIANFAN-131

AttivoComunicazioniPO
NORAD 69077·PAYLOAD·🇨🇳 China

Lanciato May 12, 2026 da Taiyuan Satellite Launch Center

Loading…

Prossimi Passaggi (prossime 24 ore)

TLE

AggiornatoSource: Space-Track

Epoca: Sep 14, 2026, 14:58 UTC

1 69077U 26104E   26257.62385293  .00000114  00000-0  15719-3 0  9994
2 69077  88.9906 332.3383 0002034 107.1924 252.9450 13.51025200 17238

Traccia QIANFAN-131 in tempo reale con AllMySat

Download on the App Store